Погода в Комаричах

Россия / Брянская область     52°25′08″N   34°47′02″E
темп.,
°C
ветер,
м/с
пор.,
м/с
влажн.,
%
обл.,
%
осадки,
мм/ч
давл.,
гПа
погр.,
м
7 мая, пт
пт700:00+7з3487100 0.0 101157
03:00+5зсз2287100 0.0 101229
06:00+5зюз228825 0.0 101327
09:00+10юз34645 0.0 1014489
12:00+14юз464324 0.0 10132123
15:00+14ююз5753100 0.0 10132146
18:00+13ю476349 0.0 1012323
21:00+9ююв51277100 0.0 1011285
8 мая, сб
сб800:00+10ююв81579100 0.9 1010718
03:00+9ююв71494100 4.5 1007785
06:00+9ю61394100 2.8 1005647
09:00+10юз3697100 5.4 1004454
12:00+10з3693100 1.8 1004363
15:00+10юз4792100 2.2 1005431
18:00+8зсз6896100 1.1 1006642
21:00+4сз81597100 7.9 1010919
9 мая, вс
вс900:00+5зсз5109371 2.1 1012867
03:00+3зсз6129312 2.1 1015511
06:00+2зсз512921 0.0 1017424
09:00+6сз69745 0.0 1019874
12:00+10сз795399 0.1 10202110
15:00+11ссз71044100 0.1 10212591
18:00+11ссз585419 0.0 10231251
21:00+6сз36665 0.0 102677
10 мая, пн
пн1000:00+4сз36725 0.0 102888
03:00+3ссз35755 0.0 102973
06:00+3с34775 0.0 103176
09:00+10св23581 0.0 1031389
12:00+13с34445 0.0 10301354
15:00+15ссв45440 0.0 10291557
18:00+14св46560 0.0 1029511
21:00+8св35720 0.0 103056
11 мая, вт
вт1100:00+6св47770 0.0 1030114
03:00+5св49810 0.0 1030136
06:00+5св412810 0.0 1029240
09:00+11св713602 0.0 1028710
12:00+15всв710540 0.0 1027967
15:00+17св68570 0.0 1026994
18:00+16всв597133 0.0 10261110
21:00+13всв49845 0.0 1026271